| time (UTC) | temp F | wind direction | speed MPH | gust MPH | rain 1hr in | rain 24hr in | rain mn in | humidity % | barometer mb |
| 20260508001546 | 57 | 138 | 8.0 | 10.0 | 0.00 | 0.83 | 0.83 | 87 | 1015.7 |
| 20260508000041 | 57 | 109 | 4.0 | 9.0 | 0.00 | 0.83 | 0.83 | 87 | 1016.0 |
| 20260507234545 | 57 | 117 | 5.0 | 9.0 | 0.00 | 0.83 | 0.83 | 87 | 1016.3 |
| 20260507233507 | 57 | 90 | 7.0 | 9.0 | 0.01 | 0.83 | 0.83 | 87 | 1015.8 |
| 20260507231550 | 56 | 118 | 4.0 | 7.0 | 0.01 | 0.83 | 0.83 | 88 | 1016.5 |
| 20260507230048 | 56 | 119 | 3.0 | 8.0 | 0.01 | 0.83 | 0.83 | 88 | 1016.5 |
| 20260507224557 | 56 | 117 | 6.0 | 9.0 | 0.01 | 0.83 | 0.83 | 88 | 1016.7 |
| 20260507223045 | 56 | 102 | 3.0 | 9.0 | 0.00 | 0.82 | 0.82 | 87 | 1016.8 |
| 20260507221546 | 56 | 122 | 5.0 | 9.0 | 0.00 | 0.82 | 0.82 | 87 | 1017.1 |
| 20260507220045 | 56 | 144 | 4.0 | 10.0 | 0.00 | 0.82 | 0.82 | 85 | 1017.3 |
| 20260507214544 | 56 | 119 | 7.0 | 13.0 | 0.00 | 0.82 | 0.82 | 86 | 1017.2 |
| 20260507213102 | 57 | 147 | 9.0 | 14.0 | 0.00 | 0.82 | 0.82 | 86 | 1017.7 |
| 20260507211546 | 0 | 0.0 | 0.0 | 0.00 | 0.82 | 0.82 | 1017.9 | ||
| 20260507210051 | 0 | 0.0 | 0.0 | 0.00 | 0.82 | 0.82 | 1017.9 | ||
| 20260507204553 | 0 | 0.0 | 0.0 | 0.30 | 0.82 | 0.82 | 1017.6 | ||
| 20260507203044 | 0 | 0.0 | 0.0 | 0.82 | 0.82 | 0.82 | 1017.9 | ||
| 20260507201543 | 54 | 8.0 | 11.0 | 0.82 | 0.82 | 0.82 | 89 | 1018.5 | |
| 20260507200046 | 53 | 61 | 5.0 | 12.0 | 0.82 | 0.82 | 0.82 | 88 | 1018.5 |
| 20260507194546 | 55 | 102 | 7.0 | 14.0 | 0.47 | 0.47 | 0.47 | 84 | 1018.8 |
| 20260507193045 | 58 | 74 | 8.0 | 15.0 | 0.00 | 0.00 | 0.00 | 77 | 1018.3 |
| 20260507191542 | 60 | 155 | 9.0 | 12.0 | 0.00 | 0.00 | 0.00 | 71 | 1019.1 |
| 20260507190042 | 60 | 101 | 4.0 | 13.0 | 0.00 | 0.00 | 0.00 | 69 | 1018.8 |
| 20260507184546 | 60 | 91 | 7.0 | 12.0 | 0.00 | 0.00 | 0.00 | 68 | 1018.9 |
| 20260507183048 | 60 | 99 | 8.0 | 13.0 | 0.00 | 0.00 | 0.00 | 68 | 1018.6 |
| 20260507181543 | 60 | 112 | 9.0 | 15.0 | 0.00 | 0.00 | 0.00 | 68 | 1019.1 |
| 20260507180049 | 61 | 71 | 11.0 | 16.0 | 0.00 | 0.00 | 0.00 | 65 | 1019.3 |
| 20260507174545 | 61 | 44 | 10.0 | 18.0 | 0.00 | 0.00 | 0.00 | 66 | 1019.4 |
| 20260507173053 | 60 | 54 | 11.0 | 17.0 | 0.00 | 0.00 | 0.00 | 67 | 1019.0 |
| 20260507171549 | 61 | 64 | 10.0 | 18.0 | 0.00 | 0.00 | 0.00 | 67 | 1019.4 |
| 20260507170046 | 60 | 80 | 10.0 | 17.0 | 0.00 | 0.00 | 0.00 | 67 | 1019.8 |
| 20260507164941 | 59 | 82 | 9.0 | 19.0 | 0.00 | 0.00 | 0.00 | 69 | 1019.5 |
| 20260507163044 | 59 | 57 | 8.0 | 15.0 | 0.00 | 0.00 | 0.00 | 71 | 1019.8 |
| 20260507161543 | 58 | 82 | 10.0 | 15.0 | 0.00 | 0.00 | 0.00 | 71 | 1020.0 |
| 20260507160057 | 58 | 44 | 11.0 | 21.0 | 0.00 | 0.00 | 0.00 | 73 | 1019.6 |
| 20260507154546 | 57 | 59 | 11.0 | 17.0 | 0.00 | 0.00 | 0.00 | 75 | 1019.6 |
| 20260507153049 | 56 | 52 | 11.0 | 18.0 | 0.00 | 0.00 | 0.00 | 76 | 1020.0 |
| 20260507151548 | 55 | 59 | 11.0 | 17.0 | 0.00 | 0.00 | 0.00 | 77 | 1020.2 |
| 20260507150044 | 55 | 53 | 10.0 | 18.0 | 0.00 | 0.00 | 0.00 | 78 | 1020.2 |
| 20260507144548 | 55 | 65 | 11.0 | 18.0 | 0.00 | 0.00 | 0.00 | 78 | 1020.0 |
| 20260507143043 | 55 | 89 | 12.0 | 17.0 | 0.00 | 0.00 | 0.00 | 79 | 1019.9 |
| 20260507141555 | 54 | 61 | 10.0 | 17.0 | 0.00 | 0.00 | 0.00 | 81 | 1020.1 |
| 20260507134545 | 54 | 68 | 6.0 | 16.0 | 0.00 | 0.03 | 0.00 | 83 | 1020.3 |
| 20260507133047 | 54 | 46 | 9.0 | 15.0 | 0.00 | 0.03 | 0.00 | 83 | 1020.5 |
| 20260507131545 | 53 | 51 | 9.0 | 16.0 | 0.00 | 0.03 | 0.00 | 84 | 1020.2 |
| 20260507130050 | 53 | 51 | 8.0 | 14.0 | 0.00 | 0.03 | 0.00 | 84 | 1020.1 |
| 20260507124552 | 53 | 48 | 11.0 | 17.0 | 0.00 | 0.04 | 0.00 | 84 | 1020.0 |
| 20260507123054 | 53 | 35 | 8.0 | 14.0 | 0.00 | 0.04 | 0.00 | 85 | 1019.9 |
| 20260507121547 | 53 | 50 | 12.0 | 19.0 | 0.00 | 0.04 | 0.00 | 84 | 1019.8 |
| 20260507120045 | 54 | 21 | 8.0 | 21.0 | 0.00 | 0.04 | 0.00 | 84 | 1019.8 |
| 20260507114549 | 54 | 28 | 9.0 | 21.0 | 0.00 | 0.04 | 0.00 | 84 | 1019.8 |
| 20260507113047 | 54 | 62 | 9.0 | 20.0 | 0.00 | 0.04 | 0.00 | 84 | 1019.6 |
| 20260507111547 | 54 | 46 | 12.0 | 20.0 | 0.00 | 0.04 | 0.00 | 84 | 1019.4 |
| 20260507110045 | 55 | 40 | 12.0 | 22.0 | 0.00 | 0.04 | 0.00 | 84 | 1019.2 |
| 20260507104543 | 55 | 47 | 13.0 | 20.0 | 0.00 | 0.04 | 0.00 | 84 | 1018.8 |
| 20260507103041 | 55 | 43 | 14.0 | 20.0 | 0.00 | 0.04 | 0.00 | 83 | 1018.9 |
| 20260507101548 | 55 | 26 | 13.0 | 21.0 | 0.00 | 0.04 | 0.00 | 83 | 1019.1 |
| 20260507100047 | 55 | 34 | 10.0 | 17.0 | 0.00 | 0.04 | 0.00 | 82 | 1019.3 |
| 20260507094544 | 55 | 57 | 8.0 | 15.0 | 0.00 | 0.04 | 0.00 | 82 | 1019.2 |
| 20260507093049 | 55 | 22 | 10.0 | 17.0 | 0.00 | 0.04 | 0.00 | 81 | 1018.9 |
| 20260507091541 | 55 | 44 | 9.0 | 16.0 | 0.00 | 0.04 | 0.00 | 81 | 1018.7 |
| 20260507090044 | 56 | 32 | 11.0 | 17.0 | 0.00 | 0.04 | 0.00 | 80 | 1018.6 |
| 20260507084712 | 56 | 28 | 9.0 | 16.0 | 0.00 | 0.04 | 0.00 | 81 | 1018.5 |
| 20260507083049 | 57 | 57 | 7.0 | 13.0 | 0.00 | 0.04 | 0.00 | 81 | 1018.4 |
| 20260507081545 | 57 | 59 | 5.0 | 11.0 | 0.00 | 0.04 | 0.00 | 81 | 1018.3 |
| 20260507080055 | 57 | 49 | 6.0 | 14.0 | 0.00 | 0.04 | 0.00 | 81 | 1018.3 |
| 20260507074547 | 57 | 62 | 5.0 | 13.0 | 0.00 | 0.04 | 0.00 | 81 | 1018.2 |
| 20260507073053 | 57 | 69 | 8.0 | 15.0 | 0.00 | 0.04 | 0.00 | 81 | 1017.8 |
| 20260507071559 | 57 | 36 | 10.0 | 17.0 | 0.00 | 0.04 | 0.00 | 81 | 1017.6 |
| 20260507070045 | 57 | 38 | 8.0 | 14.0 | 0.00 | 0.04 | 0.00 | 83 | 1017.5 |
| 20260507064550 | 58 | 39 | 7.0 | 14.0 | 0.00 | 0.04 | 0.00 | 84 | 1017.3 |
| 20260507063055 | 58 | 49 | 3.0 | 10.0 | 0.00 | 0.04 | 0.00 | 86 | 1016.9 |
| 20260507061548 | 58 | 59 | 5.0 | 9.0 | 0.00 | 0.04 | 0.00 | 85 | 1016.8 |
| 20260507060046 | 58 | 78 | 4.0 | 9.0 | 0.00 | 0.04 | 0.00 | 85 | 1016.7 |
| 20260507054552 | 58 | 59 | 5.0 | 10.0 | 0.00 | 0.04 | 0.00 | 84 | 1017.0 |
| 20260507053048 | 58 | 53 | 5.0 | 11.0 | 0.00 | 0.04 | 0.00 | 84 | 1016.9 |
| 20260507051545 | 58 | 63 | 6.0 | 11.0 | 0.00 | 0.04 | 0.00 | 83 | 1016.8 |
| 20260507050054 | 58 | 61 | 5.0 | 11.0 | 0.00 | 0.04 | 0.00 | 83 | 1016.8 |
| 20260507044545 | 59 | 38 | 6.0 | 10.0 | 0.00 | 0.04 | 0.04 | 83 | 1016.6 |
| 20260507043045 | 59 | 27 | 5.0 | 12.0 | 0.00 | 0.04 | 0.04 | 83 | 1016.6 |
| 20260507041551 | 60 | 67 | 4.0 | 6.0 | 0.00 | 0.04 | 0.04 | 82 | 1016.2 |
| 20260507040057 | 61 | 68 | 4.0 | 8.0 | 0.00 | 0.04 | 0.04 | 80 | 1016.0 |
| 20260507034553 | 61 | 99 | 3.0 | 9.0 | 0.00 | 0.04 | 0.04 | 80 | 1015.6 |
| 20260507033046 | 61 | 80 | 3.0 | 7.0 | 0.00 | 0.04 | 0.04 | 79 | 1015.5 |
| 20260507031543 | 62 | 114 | 3.0 | 8.0 | 0.00 | 0.04 | 0.04 | 78 | 1015.1 |
| 20260507030043 | 62 | 112 | 4.0 | 8.0 | 0.00 | 0.04 | 0.04 | 77 | 1014.9 |
| 20260507024545 | 63 | 111 | 6.0 | 11.0 | 0.00 | 0.04 | 0.04 | 76 | 1015.0 |
| 20260507023042 | 63 | 90 | 6.0 | 11.0 | 0.00 | 0.04 | 0.04 | 75 | 1014.6 |
| 20260507021546 | 64 | 98 | 6.0 | 11.0 | 0.00 | 0.04 | 0.04 | 73 | 1014.6 |
| 20260507020051 | 64 | 98 | 5.0 | 10.0 | 0.00 | 0.04 | 0.04 | 72 | 1014.2 |
| 20260507014545 | 65 | 107 | 6.0 | 11.0 | 0.00 | 0.04 | 0.04 | 71 | 1014.0 |
| 20260507013047 | 66 | 53 | 6.0 | 13.0 | 0.00 | 0.04 | 0.04 | 68 | 1014.0 |
| 20260507011555 | 67 | 89 | 8.0 | 14.0 | 0.00 | 0.04 | 0.04 | 67 | 1014.0 |
| 20260507010046 | 69 | 103 | 8.0 | 12.0 | 0.00 | 0.04 | 0.04 | 64 | 1013.5 |
| 20260507004542 | 69 | 72 | 5.0 | 13.0 | 0.00 | 0.04 | 0.04 | 62 | 1013.6 |
| 20260507003044 | 69 | 60 | 9.0 | 15.0 | 0.00 | 0.04 | 0.04 | 62 | 1013.3 |